Powrót do katalogu

DELTA 1 DEB

AktywnySSO
NORAD 21473·DEBRIS·🇺🇸 United States

Wystrzelony Jun 12, 1975 z Vandenberg Space Force Base

Loading…

Następne Przeloty (najbliższe 24 godziny)

TLE

ŚwieżeSource: Space-Track

Epoka: Sep 14, 2026, 00:50 UTC

1 21473U 75052FH  26257.03531314  .00000429  00000-0  51233-3 0  9990
2 21473  99.9215  89.2698 0239742 103.3141  46.3286 13.61430496745356

Śledź DELTA 1 DEB w czasie rzeczywistym z AllMySat

Download on the App Store